SCP
-0 -0 0 0 0 0 -0 -0 0 0 0 0 0 0 -0 0 0 -0 -0 -0 0 0 0 0 0 0 0 0 0 0 0 0 0 0 0 0 0 0 0 0 0 0 0 0 0
0 -0 0 0 0 0 0 0 0 0 0 0 0 0 0 0 0 -0 -0 -0 0 0 0 0 0 0 0 0 0 0 0 0 0 0 0 0 0 0 0 0 0 0 0 0 0
0 0 0 0 0 0 0 0 0 0 0 0 0 0 0 0 0 -0 -0 -0 -0 0 0 0 0 0 0 0 0 0 0 0 0 0 0 0 0 0 0 0 0 0 0 0 0
-0 0 0 0 -0 0 0 0 0 0 0 0 0 0 0 0 0 -0 -0 -0 -0 0 0 0 0 0 0 0 0 0 0 0 0 0 0 0 0 0 0 0 0 0 0 0 0
-0 0 0 -0 -0 0 -0 -0 -0 -0 -0 -0 0 0 0 0 0 0 0 -0 0 0 0 0 0 0 0 0 0 0 0 0 0 0 0 0 0 0 0 0 0 0 0 0 0
0 0 0 -0 0 0 -0 -0 0 0 0 0 -0 -0 0 0 0 0 0 0 0 0 0 0 0 0 0 0 0 0 0 0 0 0 0 0 0 0 0 0 0 0 0 0 0
0 0 0 0 0 -0 -0 0 0 0 -0 -0 0 -0 0 0 0 0 0 0 -0 0 0 0 0 0 0 0 0 0 0 0 0 0 0 0 0 0 0 0 0 0 0 0 0
0 0 0 0 0 -0 -0 0 0 0 0 0 0 -0 -0 -0 0 0 0 -0 -0 0 0 0 0 0 0 0 0 0 0 0 0 0 0 0 0 0 0 0 0 0 0 0 0
0 0 -0 0 0 0 -0 -0 0 0 0 0 0 -0 0 0 0 0 0 0 -0 0 -0 0 0 0 0 0 0 0 0 0 0 0 0 0 -0 0 0 0 0 0 0 0 0
0 0 -0 0 0 0 0 0 0 0 0 0 0 0 -0 0 0 0 0 0 0 0 0 0 0 0 0 0 0 0 0 0 0 0 0 0 0 -0 0 0 0 0 0 0 0
0 0 -0 -0 0 0 0 0 0 -0 0 0 0 0 0 0 0 0 0 0 0 0 0 0 0 0 0 0 0 0 0 0 0 0 0 0 0 0 0 0 0 0 0 0 0
-0 -0 0 0 -0 0 0 0 0 0 0 0 0 0 0 0 0 0 0 0 0 0 0 0 0 0 0 0 0 0 0 0 0 0 0 0 0 0 0 0 0 0 0 0 0
0 -0 -0 0 0 0 0 0 0 0 -0 0 -0 0 0 0 0 0 0 0 0 0 0 0 0 0 0 0 0 0 0 0 0 0 0 0 0 0 0 0 0 0 0 0 0
-0 0 -0 -0 0 0 0 0 0 0 -0 -0 0 0 0 0 0 0 0 0 0 0 0 0 0 0 0 0 0 0 0 0 0 0 0 0 0 0 0 0 0 0 0 0 0
-0 -0 0 0 0 0 0 0 0 0 0 -0 0 0 0 0 0 0 0 0 0 0 0 0 0 0 0 0 0 0 0 0 0 0 0 0 0 0 0 0 0 0 0 0 0
0 0 0 0 0 0 0 0 0 0 0 -0 0 0 0 0 0 0 0 0 0 0 0 0 0 0 0 0 0 0 0 0 0 0 0 0 0 -0 0 0 0 0 0 0 0
0 0 0 0 0 0 0 0 0 0 0 -0 -0 0 0 0 0 0 0 0 0 0 0 0 0 0 0 0 0 0 0 0 0 0 0 0 0 0 0 0 0 0 0 0 0
0 0 0 0 0 0 0 0 0 0 0 -0 -0 0 0 0 0 0 0 0 0 0 0 0 0 0 0 0 0 0 0 0 0 0 0 0 0 0 0 0 0 0 0 0 0
0 0 0 0 0 0 0 0 0 0 0 -0 -0 0 0 0 0 0 0 0 0 0 0 0 0 0 0 0 0 0 0 0 0 0 0 0 0 0 0 0 0 0 0 0 0
0 0 0 0 0 0 0 0 0 0 0 0 0 -0 0 0 0 0 0 0 0 0 0 0 0 0 0 0 0 0 0 0 0 0 0 0 0 0 0 0 0 0 0 0 0
0 0 0 0 0 0 0 0 0 0 0 0 0 0 0 0 0 0 0 0 0 0 0 0 0 0 0 0 0 0 0 0 0 0 0 0 0 0 0 0 0 0 0 0 0
0 0 0 0 0 0 0 0 0 0 0 0 0 0 0 0 0 0 0 0 0 0 0 0 0 0 0 0 0 0 0 0 0 0 0 0 0 0 0 0 0 0 0 0 0
0 0 0 0 0 0 0 0 0 0 0 0 0 0 0 0 0 0 0 0 0 0 0 0 0 0 0 0 0 0 0 0 0 0 0 0 0 0 0 0 0 0 0 0 0
0 0 0 0 0 0 0 0 0 0 0 0 0 0 0 0 0 0 0 0 0 0 0 0 0 0 0 0 0 0 0 0 0 0 0 0 0 0 0 0 0 0 0 0 0
0 0 0 0 0 0 0 0 0 0 0 0 0 0 0 0 0 0 0 0 0 0 0 0 0 0 0 0 0 0 0 0 0 0 0 0 0 0 0 -0 0 0 0 0 0
0 0 0 0 0 0 0 0 0 0 0 0 0 0 0 0 0 0 0 0 0 0 0 0 0 0 0 0 0 0 0 0 0 0 0 0 0 0 0 0 0 0 0 0 0
0 0 0 0 0 0 0 0 0 0 0 0 0 0 0 0 0 0 0 0 0 0 0 0 0 0 0 0 0 0 0 0 0 0 0 0 -0 0 0 0 0 0 0 0 0
Wind_Speed_500mb
33 34 28 26 28 28 21 23 19 18 21 19 25 28 33 29 40 44 38 50 52 36 76 82 64 47 49 32 18 24 6 6 3 6 4 6 4 7 9 26 8 8 20 20 58
35 35 28 24 29 31 25 25 25 25 28 30 30 35 35 38 36 48 41 41 57 46 87 78 71 54 28 23 17 9 16 8 2 3 5 11 2 14 9 14 5 9 15 50 60
29 37 35 33 31 27 27 28 33 37 39 47 46 42 38 37 21 19 39 43 68 40 94 73 73 52 20 23 18 11 25 10 4 8 7 4 4 3 18 4 11 21 38 65 60
26 40 42 35 33 32 32 33 36 39 36 28 29 32 35 27 12 12 35 64 45 40 92 68 68 41 13 17 15 12 15 21 6 18 12 9 5 5 3 0 7 16 39 67 61
24 36 45 46 35 34 34 32 35 32 29 16 8 17 36 26 21 16 19 63 47 46 53 79 64 36 16 16 20 6 8 20 8 14 25 7 8 3 2 5 8 25 52 60 54
24 35 41 44 40 35 27 26 32 29 22 22 17 23 33 15 18 12 22 58 41 45 28 88 59 39 31 18 7 10 20 13 6 10 15 13 6 2 4 1 13 35 54 53 49
25 32 38 38 35 30 28 25 21 24 16 4 15 21 29 25 13 14 15 46 43 42 23 85 65 44 36 12 23 19 10 9 5 5 7 16 4 3 3 9 23 36 47 48 48
22 28 31 34 38 34 27 27 18 14 5 10 9 19 14 29 23 9 16 30 82 36 73 67 65 47 15 44 15 9 5 12 5 8 6 11 7 1 9 14 19 26 37 42 43
20 23 25 29 39 48 20 14 33 18 15 8 2 3 9 11 34 16 14 41 57 42 31 39 51 21 22 21 9 6 9 11 5 3 9 4 5 2 9 12 16 23 30 35 39
16 19 25 26 28 46 24 18 19 32 11 5 12 1 8 15 16 10 25 42 44 43 21 20 9 7 8 28 32 19 13 9 13 12 4 7 13 6 12 18 23 24 28 32 36
19 16 24 25 27 34 43 13 10 4 30 11 15 10 15 22 18 23 30 37 35 29 14 21 5 15 24 11 10 17 21 9 4 16 10 25 11 13 6 12 22 29 33 34 34
21 20 21 26 31 25 28 19 14 7 10 19 16 16 26 23 19 26 22 12 14 14 11 11 24 21 20 13 13 27 24 11 7 14 7 9 21 11 14 13 28 31 39 41 37
26 20 23 25 26 23 22 22 16 9 6 11 18 14 18 15 13 28 28 12 10 10 2 17 3 7 22 17 17 20 33 14 12 10 4 5 11 9 9 12 21 28 33 42 38
27 27 20 23 14 23 14 25 21 5 5 16 13 13 17 8 10 31 27 22 17 12 10 12 6 15 29 18 17 13 3 19 30 19 8 10 8 14 21 15 15 38 39 37 36
24 25 23 17 19 16 20 23 15 1 8 12 12 13 15 14 4 21 23 19 11 14 2 1 9 16 40 22 10 9 10 19 16 21 9 10 6 6 11 21 23 40 49 42 38
23 26 23 17 17 17 22 24 2 10 7 10 7 12 8 14 6 6 10 14 8 12 20 7 10 7 5 11 11 19 17 13 8 5 7 13 20 9 13 28 29 24 59 50 46
18 19 25 19 14 18 23 12 10 9 7 7 7 6 5 10 7 5 6 6 3 9 4 14 8 4 9 17 6 3 11 4 3 6 7 5 13 21 13 16 16 35 47 51 47
24 16 19 21 17 16 20 10 13 7 8 3 3 4 6 9 6 6 4 4 8 8 6 6 3 14 13 8 5 6 1 8 11 8 4 4 14 10 10 19 33 44 59 52 51
31 22 14 15 13 10 8 9 13 11 4 2 3 7 3 1 1 3 5 2 5 8 7 8 6 1 9 7 7 5 4 3 8 4 3 9 11 18 7 10 19 36 54 64 62
26 22 14 8 4 2 8 8 6 6 2 4 3 5 3 2 4 2 2 1 4 7 7 2 9 6 4 3 19 7 10 6 2 9 9 7 9 11 8 13 12 26 50 66 66
19 9 8 5 5 3 6 11 8 8 4 7 4 4 2 4 2 4 6 1 3 4 9 7 3 4 1 3 8 4 4 6 3 3 4 5 10 10 12 17 25 27 46 69 70
16 0 8 12 2 4 4 9 2 5 5 4 5 6 10 7 6 6 9 6 20 15 9 3 7 6 2 6 2 6 5 6 6 7 5 1 12 3 14 13 30 33 46 66 67
14 9 12 21 3 4 6 5 4 5 7 6 6 5 3 5 2 4 1 10 13 9 9 10 1 6 1 2 5 6 10 6 1 3 10 8 9 4 11 13 23 39 53 68 65
18 3 7 17 10 10 9 5 5 8 3 4 2 2 3 3 6 5 4 3 2 2 2 7 4 6 9 6 8 9 12 21 11 4 4 11 11 11 6 9 19 38 51 64 68
25 8 11 6 8 5 6 11 8 7 5 6 1 8 10 3 6 4 2 4 6 3 3 4 7 3 1 2 2 5 7 22 19 22 11 3 20 26 8 13 27 40 47 58 74
24 14 12 6 13 13 7 12 19 10 13 8 8 12 10 11 12 14 9 4 7 4 8 3 3 4 6 5 5 6 11 17 32 34 35 35 46 28 24 14 21 39 55 66 76
31 30 19 17 8 9 10 13 16 16 6 5 15 10 9 11 10 6 11 10 7 12 11 8 10 6 9 6 7 10 24 32 14 13 22 26 41 8 11 24 41 46 54 65 74
Wind_Direction_500mb
8 3 2 353 352 337 344 355 334 312 336 311 294 291 282 265 251 257 243 243 236 229 179 177 179 171 162 150 163 144 169 223 87 201 281 328 121 114 111 136 142 165 160 174 159
15 18 7 4 355 349 350 356 343 331 312 304 299 282 267 271 268 254 233 236 227 204 178 181 182 176 152 151 166 130 191 194 125 14 302 304 279 144 129 138 108 142 168 159 164
15 12 7 354 345 341 341 332 325 319 309 302 286 270 261 259 263 247 239 235 244 215 188 182 177 166 140 149 145 203 190 151 147 16 350 321 84 105 139 210 195 181 158 166 171
2 358 355 343 327 329 335 327 324 322 321 303 287 250 233 204 203 209 203 217 239 222 186 178 172 162 134 144 151 142 140 137 102 18 41 356 94 66 110 239 216 200 177 171 177
357 355 351 352 342 341 326 331 342 340 341 322 323 182 179 191 226 327 213 207 241 238 188 181 171 163 145 125 128 149 150 146 117 36 33 25 44 130 22 333 193 182 176 178 180
347 350 350 356 359 349 336 345 358 344 324 295 248 194 174 216 226 334 212 199 223 223 207 182 184 173 146 149 134 106 93 137 97 24 47 26 5 32 348 13 169 180 180 184 186
339 346 351 356 360 349 356 355 349 1 73 95 162 182 208 237 332 329 204 197 237 230 224 184 182 173 144 106 120 106 78 92 111 30 34 348 303 349 174 161 168 179 185 191 193
347 346 352 358 360 338 347 358 7 36 115 119 135 190 246 248 297 338 187 196 224 233 227 156 170 165 131 127 90 101 82 155 140 182 58 56 258 360 174 179 165 184 194 201 202
346 339 337 352 359 353 329 11 36 353 3 144 340 260 316 280 280 288 158 173 195 217 223 165 146 129 140 136 114 191 156 179 138 313 126 153 253 278 190 212 195 198 206 211 211
333 335 323 334 353 5 2 296 315 8 7 348 341 159 300 293 316 356 108 145 166 176 173 202 122 133 133 173 192 171 174 187 178 198 89 219 258 223 185 207 230 221 219 216 216
319 329 324 326 335 350 0 332 329 323 46 44 341 288 320 351 27 31 74 129 150 161 180 133 215 190 179 181 125 153 181 140 155 166 158 207 239 240 198 202 231 233 228 223 221
316 315 316 320 327 343 351 22 36 351 325 17 16 11 24 14 15 30 34 72 139 157 144 128 233 195 162 156 149 161 169 150 70 132 205 183 230 199 195 203 215 225 225 222 217
342 310 312 318 330 340 3 12 352 329 291 343 15 7 8 43 12 359 25 50 74 76 172 183 40 127 167 161 175 190 185 171 139 133 68 64 285 199 213 219 212 224 227 222 216
339 339 312 318 327 342 358 357 340 324 52 319 349 14 353 40 40 26 22 26 32 63 59 77 316 188 185 205 202 185 132 161 141 145 208 178 269 226 193 207 207 217 217 210 207
332 339 337 323 319 336 340 346 339 223 12 331 334 348 13 66 26 14 39 52 73 31 68 265 7 167 178 184 180 229 127 147 162 175 135 184 267 218 188 210 215 215 215 208 205
324 331 336 334 318 322 335 338 62 41 288 351 340 350 15 28 48 64 64 72 100 57 50 51 5 29 36 71 90 122 86 58 67 90 249 179 198 205 181 209 219 207 212 206 202
311 320 326 330 323 324 333 343 32 97 325 6 355 25 60 4 32 59 57 54 134 151 73 5 21 5 11 86 51 30 122 91 131 188 239 322 219 255 241 234 213 207 200 198 193
303 308 310 318 319 325 338 47 62 253 259 330 28 1 73 349 34 25 97 129 42 62 105 128 104 10 348 37 158 142 119 173 186 194 185 10 235 241 254 221 222 216 206 188 179
299 302 293 301 315 327 337 49 202 212 212 262 57 34 347 17 326 68 53 55 55 25 110 131 83 283 50 30 357 166 115 20 90 46 61 214 278 281 236 240 184 172 176 177 179
285 296 277 265 269 320 67 231 194 204 235 58 311 138 237 275 157 69 222 11 66 25 318 132 109 31 61 52 35 34 138 110 54 151 247 265 279 248 275 240 188 176 174 177 179
256 276 229 204 185 129 163 224 227 220 203 161 211 274 247 207 244 185 176 339 88 60 30 95 71 71 6 182 161 126 138 75 106 169 233 300 261 210 270 220 199 187 180 180 180
209 142 206 164 22 59 167 196 264 247 197 233 165 196 206 175 164 238 210 272 162 153 123 110 98 112 89 38 63 100 166 155 160 195 224 294 279 282 281 246 170 178 184 188 185
190 191 187 174 208 268 300 281 256 206 207 193 224 189 77 203 291 168 209 337 180 150 152 180 280 104 139 269 24 209 172 195 14 121 212 159 258 358 20 84 173 177 190 193 189
171 160 149 189 192 144 154 220 233 217 256 193 211 88 92 83 11 228 132 50 4 277 54 141 122 184 185 170 126 196 183 188 185 197 202 221 284 268 84 166 192 195 199 200 196
198 197 208 172 241 180 200 140 155 199 212 205 186 226 160 106 23 247 33 52 52 40 65 114 193 149 286 108 184 219 188 185 204 220 231 170 232 265 202 205 217 211 207 206 204
169 160 155 162 137 120 208 218 180 177 153 231 178 187 179 159 185 198 141 219 195 102 155 36 261 94 302 306 273 262 235 205 217 233 244 253 270 251 245 232 211 213 208 210 214
198 168 174 162 150 133 205 201 207 143 215 186 172 121 152 214 173 142 152 112 143 156 165 144 137 93 264 353 352 317 220 208 201 220 215 223 240 139 242 233 231 228 217 220 221
Wind_Speed_850mb
33 34 28 26 28 28 21 23 19 18 21 19 25 28 33 29 40 44 38 50 52 36 76 82 64 47 49 32 18 24 6 6 3 6 4 6 4 7 9 26 8 8 20 20 58
35 35 28 24 29 31 25 25 25 25 28 30 30 35 35 38 36 48 41 41 57 46 87 78 71 54 28 23 17 9 16 8 2 3 5 11 2 14 9 14 5 9 15 50 60
29 37 35 33 31 27 27 28 33 37 39 47 46 42 38 37 21 19 39 43 68 40 94 73 73 52 20 23 18 11 25 10 4 8 7 4 4 3 18 4 11 21 38 65 60
26 40 42 35 33 32 32 33 36 39 36 28 29 32 35 27 12 12 35 64 45 40 92 68 68 41 13 17 15 12 15 21 6 18 12 9 5 5 3 0 7 16 39 67 61
24 36 45 46 35 34 34 32 35 32 29 16 8 17 36 26 21 16 19 63 47 46 53 79 64 36 16 16 20 6 8 20 8 14 25 7 8 3 2 5 8 25 52 60 54
24 35 41 44 40 35 27 26 32 29 22 22 17 23 33 15 18 12 22 58 41 45 28 88 59 39 31 18 7 10 20 13 6 10 15 13 6 2 4 1 13 35 54 53 49
25 32 38 38 35 30 28 25 21 24 16 4 15 21 29 25 13 14 15 46 43 42 23 85 65 44 36 12 23 19 10 9 5 5 7 16 4 3 3 9 23 36 47 48 48
22 28 31 34 38 34 27 27 18 14 5 10 9 19 14 29 23 9 16 30 82 36 73 67 65 47 15 44 15 9 5 12 5 8 6 11 7 1 9 14 19 26 37 42 43
20 23 25 29 39 48 20 14 33 18 15 8 2 3 9 11 34 16 14 41 57 42 31 39 51 21 22 21 9 6 9 11 5 3 9 4 5 2 9 12 16 23 30 35 39
16 19 25 26 28 46 24 18 19 32 11 5 12 1 8 15 16 10 25 42 44 43 21 20 9 7 8 28 32 19 13 9 13 12 4 7 13 6 12 18 23 24 28 32 36
19 16 24 25 27 34 43 13 10 4 30 11 15 10 15 22 18 23 30 37 35 29 14 21 5 15 24 11 10 17 21 9 4 16 10 25 11 13 6 12 22 29 33 34 34
21 20 21 26 31 25 28 19 14 7 10 19 16 16 26 23 19 26 22 12 14 14 11 11 24 21 20 13 13 27 24 11 7 14 7 9 21 11 14 13 28 31 39 41 37
26 20 23 25 26 23 22 22 16 9 6 11 18 14 18 15 13 28 28 12 10 10 2 17 3 7 22 17 17 20 33 14 12 10 4 5 11 9 9 12 21 28 33 42 38
27 27 20 23 14 23 14 25 21 5 5 16 13 13 17 8 10 31 27 22 17 12 10 12 6 15 29 18 17 13 3 19 30 19 8 10 8 14 21 15 15 38 39 37 36
24 25 23 17 19 16 20 23 15 1 8 12 12 13 15 14 4 21 23 19 11 14 2 1 9 16 40 22 10 9 10 19 16 21 9 10 6 6 11 21 23 40 49 42 38
23 26 23 17 17 17 22 24 2 10 7 10 7 12 8 14 6 6 10 14 8 12 20 7 10 7 5 11 11 19 17 13 8 5 7 13 20 9 13 28 29 24 59 50 46
18 19 25 19 14 18 23 12 10 9 7 7 7 6 5 10 7 5 6 6 3 9 4 14 8 4 9 17 6 3 11 4 3 6 7 5 13 21 13 16 16 35 47 51 47
24 16 19 21 17 16 20 10 13 7 8 3 3 4 6 9 6 6 4 4 8 8 6 6 3 14 13 8 5 6 1 8 11 8 4 4 14 10 10 19 33 44 59 52 51
31 22 14 15 13 10 8 9 13 11 4 2 3 7 3 1 1 3 5 2 5 8 7 8 6 1 9 7 7 5 4 3 8 4 3 9 11 18 7 10 19 36 54 64 62
26 22 14 8 4 2 8 8 6 6 2 4 3 5 3 2 4 2 2 1 4 7 7 2 9 6 4 3 19 7 10 6 2 9 9 7 9 11 8 13 12 26 50 66 66
19 9 8 5 5 3 6 11 8 8 4 7 4 4 2 4 2 4 6 1 3 4 9 7 3 4 1 3 8 4 4 6 3 3 4 5 10 10 12 17 25 27 46 69 70
16 0 8 12 2 4 4 9 2 5 5 4 5 6 10 7 6 6 9 6 20 15 9 3 7 6 2 6 2 6 5 6 6 7 5 1 12 3 14 13 30 33 46 66 67
14 9 12 21 3 4 6 5 4 5 7 6 6 5 3 5 2 4 1 10 13 9 9 10 1 6 1 2 5 6 10 6 1 3 10 8 9 4 11 13 23 39 53 68 65
18 3 7 17 10 10 9 5 5 8 3 4 2 2 3 3 6 5 4 3 2 2 2 7 4 6 9 6 8 9 12 21 11 4 4 11 11 11 6 9 19 38 51 64 68
25 8 11 6 8 5 6 11 8 7 5 6 1 8 10 3 6 4 2 4 6 3 3 4 7 3 1 2 2 5 7 22 19 22 11 3 20 26 8 13 27 40 47 58 74
24 14 12 6 13 13 7 12 19 10 13 8 8 12 10 11 12 14 9 4 7 4 8 3 3 4 6 5 5 6 11 17 32 34 35 35 46 28 24 14 21 39 55 66 76
31 30 19 17 8 9 10 13 16 16 6 5 15 10 9 11 10 6 11 10 7 12 11 8 10 6 9 6 7 10 24 32 14 13 22 26 41 8 11 24 41 46 54 65 74
Wind_Direction_850mb
8 3 2 353 352 337 344 355 334 312 336 311 294 291 282 265 251 257 243 243 236 229 179 177 179 171 162 150 163 144 169 223 87 201 281 328 121 114 111 136 142 165 160 174 159
15 18 7 4 355 349 350 356 343 331 312 304 299 282 267 271 268 254 233 236 227 204 178 181 182 176 152 151 166 130 191 194 125 14 302 304 279 144 129 138 108 142 168 159 164
15 12 7 354 345 341 341 332 325 319 309 302 286 270 261 259 263 247 239 235 244 215 188 182 177 166 140 149 145 203 190 151 147 16 350 321 84 105 139 210 195 181 158 166 171
2 358 355 343 327 329 335 327 324 322 321 303 287 250 233 204 203 209 203 217 239 222 186 178 172 162 134 144 151 142 140 137 102 18 41 356 94 66 110 239 216 200 177 171 177
357 355 351 352 342 341 326 331 342 340 341 322 323 182 179 191 226 327 213 207 241 238 188 181 171 163 145 125 128 149 150 146 117 36 33 25 44 130 22 333 193 182 176 178 180
347 350 350 356 359 349 336 345 358 344 324 295 248 194 174 216 226 334 212 199 223 223 207 182 184 173 146 149 134 106 93 137 97 24 47 26 5 32 348 13 169 180 180 184 186
339 346 351 356 360 349 356 355 349 1 73 95 162 182 208 237 332 329 204 197 237 230 224 184 182 173 144 106 120 106 78 92 111 30 34 348 303 349 174 161 168 179 185 191 193
347 346 352 358 360 338 347 358 7 36 115 119 135 190 246 248 297 338 187 196 224 233 227 156 170 165 131 127 90 101 82 155 140 182 58 56 258 360 174 179 165 184 194 201 202
346 339 337 352 359 353 329 11 36 353 3 144 340 260 316 280 280 288 158 173 195 217 223 165 146 129 140 136 114 191 156 179 138 313 126 153 253 278 190 212 195 198 206 211 211
333 335 323 334 353 5 2 296 315 8 7 348 341 159 300 293 316 356 108 145 166 176 173 202 122 133 133 173 192 171 174 187 178 198 89 219 258 223 185 207 230 221 219 216 216
319 329 324 326 335 350 0 332 329 323 46 44 341 288 320 351 27 31 74 129 150 161 180 133 215 190 179 181 125 153 181 140 155 166 158 207 239 240 198 202 231 233 228 223 221
316 315 316 320 327 343 351 22 36 351 325 17 16 11 24 14 15 30 34 72 139 157 144 128 233 195 162 156 149 161 169 150 70 132 205 183 230 199 195 203 215 225 225 222 217
342 310 312 318 330 340 3 12 352 329 291 343 15 7 8 43 12 359 25 50 74 76 172 183 40 127 167 161 175 190 185 171 139 133 68 64 285 199 213 219 212 224 227 222 216
339 339 312 318 327 342 358 357 340 324 52 319 349 14 353 40 40 26 22 26 32 63 59 77 316 188 185 205 202 185 132 161 141 145 208 178 269 226 193 207 207 217 217 210 207
332 339 337 323 319 336 340 346 339 223 12 331 334 348 13 66 26 14 39 52 73 31 68 265 7 167 178 184 180 229 127 147 162 175 135 184 267 218 188 210 215 215 215 208 205
324 331 336 334 318 322 335 338 62 41 288 351 340 350 15 28 48 64 64 72 100 57 50 51 5 29 36 71 90 122 86 58 67 90 249 179 198 205 181 209 219 207 212 206 202
311 320 326 330 323 324 333 343 32 97 325 6 355 25 60 4 32 59 57 54 134 151 73 5 21 5 11 86 51 30 122 91 131 188 239 322 219 255 241 234 213 207 200 198 193
303 308 310 318 319 325 338 47 62 253 259 330 28 1 73 349 34 25 97 129 42 62 105 128 104 10 348 37 158 142 119 173 186 194 185 10 235 241 254 221 222 216 206 188 179
299 302 293 301 315 327 337 49 202 212 212 262 57 34 347 17 326 68 53 55 55 25 110 131 83 283 50 30 357 166 115 20 90 46 61 214 278 281 236 240 184 172 176 177 179
285 296 277 265 269 320 67 231 194 204 235 58 311 138 237 275 157 69 222 11 66 25 318 132 109 31 61 52 35 34 138 110 54 151 247 265 279 248 275 240 188 176 174 177 179
256 276 229 204 185 129 163 224 227 220 203 161 211 274 247 207 244 185 176 339 88 60 30 95 71 71 6 182 161 126 138 75 106 169 233 300 261 210 270 220 199 187 180 180 180
209 142 206 164 22 59 167 196 264 247 197 233 165 196 206 175 164 238 210 272 162 153 123 110 98 112 89 38 63 100 166 155 160 195 224 294 279 282 281 246 170 178 184 188 185
190 191 187 174 208 268 300 281 256 206 207 193 224 189 77 203 291 168 209 337 180 150 152 180 280 104 139 269 24 209 172 195 14 121 212 159 258 358 20 84 173 177 190 193 189
171 160 149 189 192 144 154 220 233 217 256 193 211 88 92 83 11 228 132 50 4 277 54 141 122 184 185 170 126 196 183 188 185 197 202 221 284 268 84 166 192 195 199 200 196
198 197 208 172 241 180 200 140 155 199 212 205 186 226 160 106 23 247 33 52 52 40 65 114 193 149 286 108 184 219 188 185 204 220 231 170 232 265 202 205 217 211 207 206 204
169 160 155 162 137 120 208 218 180 177 153 231 178 187 179 159 185 198 141 219 195 102 155 36 261 94 302 306 273 262 235 205 217 233 244 253 270 251 245 232 211 213 208 210 214
198 168 174 162 150 133 205 201 207 143 215 186 172 121 152 214 173 142 152 112 143 156 165 144 137 93 264 353 352 317 220 208 201 220 215 223 240 139 242 233 231 228 217 220 221